Flag for Switzerland Weather past 2 weeks in Altstätten, St. Gallen, Switzerland

Now
46 °F

Partly sunny.


Feels Like: 43 °F
Forecast: 34 / 63 °F
Wind: 7 mph from Northeast

Location: Saint Gallen-Altenrhein


UV Index: 3 (Moderate)

Visibility: N/A


Pressure: 29.77 "Hg

Humidity: 71%

Dew point: 37 °F

Location of AltstättenLocation

Historic Weather in Altstätten

°F

Altstätten temperature yesterday

Maximum temperature yesterday: 50 °F (at 12:20 PM)
Minimum temperature yesterday: 34 °F (at 5:50 PM)
Average temperature yesterday: 41 °F

Past Weeks' High & Low Weather Summary

 TemperatureHumidityPressure
High66 °F (Apr 11, 3:50 PM)100% (Apr 6, 2:50 AM)30.33 "Hg (Apr 6, 2:50 AM)
Low30 °F (Apr 17, 6:20 AM)27% (Apr 17, 4:50 PM)29.71 "Hg (Apr 4, 3:20 PM)
Average50 °F70%30.08 "Hg
* Reported Apr 4 3:20 PM — Apr 19 3:50 PM, Altstätten, Weather by CustomWeather, © 2014

Note: Actual official high and low records may vary slightly from our data, if they occured in-between our weather recording intervals... More about our weather records

Advertising

Historic Weather Conditions — Data for Previous 24 hours

 ConditionsComfort  
Time TempWeatherWind HumidityBarometerVisibility
3:50 PM
Apr 19
46 °FPartly sunny.7 mph71%29.80 "HgN/A
3:20 PM48 °FPartly sunny.7 mph71%29.80 "HgN/A
2:50 PM48 °FPartly sunny.7 mph71%29.80 "HgN/A
2:20 PM48 °FPartly sunny.7 mph66%29.80 "HgN/A
1:50 PM48 °FPartly sunny.7 mph66%29.80 "HgN/A
1:20 PM46 °FPartly sunny.7 mph57%29.80 "HgN/A
12:50 PM45 °FPartly sunny.3 mph71%29.83 "HgN/A
12:20 PM45 °FPartly sunny.6 mph71%29.83 "HgN/A
11:50 AM43 °FPartly sunny.6 mph76%29.83 "HgN/A
11:20 AM43 °FPartly sunny.6 mph76%29.83 "HgN/A
10:50 AM43 °FPartly sunny.7 mph76%29.83 "HgN/A
10:20 AM43 °FPartly sunny.6 mph76%29.83 "HgN/A
9:50 AM41 °FPartly sunny.5 mph81%29.83 "HgN/A
9:20 AM43 °FPartly sunny.7 mph76%29.83 "HgN/A
8:50 AM41 °FPartly sunny.9 mph81%29.83 "HgN/A
8:20 AM39 °FPartly sunny.8 mph87%29.83 "HgN/A
7:50 AM39 °FPartly sunny.6 mph87%29.83 "HgN/A
7:20 AM39 °FPassing clouds.5 mph87%29.83 "HgN/A
6:50 AM39 °FPassing clouds.3 mph87%29.83 "HgN/A
6:20 AM37 °FPassing clouds.3 mph93%29.83 "HgN/A
5:50 AM39 °FPassing clouds.5 mph87%29.83 "HgN/A
5:20 AM37 °FPassing clouds.2 mph93%29.83 "HgN/A
4:50 AM37 °FPassing clouds.2 mph93%29.86 "HgN/A
4:20 AM37 °FLight rain. Low clouds.2 mph93%29.86 "HgN/A
3:50 AM36 °FLight rain. Low clouds.2 mph100%29.86 "HgN/A
3:20 AM36 °FLight rain. Low clouds.2 mph100%29.89 "HgN/A
2:50 AM36 °FLight rain. Passing clouds.2 mph100%29.89 "Hg4 mi
2:20 AM36 °FLight rain. Low clouds.2 mph100%29.89 "Hg4 mi
1:50 AM37 °FRain. Low clouds.2 mph93%29.89 "Hg4 mi
1:20 AM37 °FLight rain. Low clouds.1 mph93%29.92 "Hg6 mi
12:50 AM37 °FLight rain. Low clouds.3 mph93%29.92 "HgN/A
12:20 AM37 °FLight rain. Low clouds.3 mph93%29.92 "HgN/A
11:50 PM
Apr 18
37 °FLight rain. Partly cloudy.3 mph93%29.92 "HgN/A
11:20 PM37 °FLight rain. Partly cloudy.5 mph93%29.92 "HgN/A
10:50 PM37 °FSprinkles. Low clouds.6 mph100%29.92 "HgN/A
10:20 PM37 °FSprinkles. Passing clouds.2 mph93%29.95 "HgN/A
9:50 PM37 °FPassing clouds.2 mph100%29.92 "HgN/A
9:20 PM37 °FPassing clouds.2 mph93%29.95 "HgN/A
8:50 PM37 °FLight rain. Partly sunny.2 mph93%29.95 "HgN/A
8:20 PM37 °FLight rain. Overcast.1 mph93%29.92 "HgN/A
7:50 PM37 °FLight rain. Partly sunny.2 mph87%29.92 "HgN/A
7:20 PM36 °FSprinkles. Partly sunny.3 mph93%29.92 "HgN/A
6:50 PM36 °FSprinkles. Mostly cloudy.2 mph93%29.92 "Hg3 mi
6:20 PM34 °FLight snow. Mostly cloudy.3 mph93%29.92 "Hg3 mi
5:50 PM34 °FLight snow. Mostly cloudy.6 mph93%29.92 "Hg3 mi
5:20 PM37 °FLight rain. Fog.3 mph87%29.92 "Hg3 mi
Weather by CustomWeather, © 2014

See weather overview